Time,TemperatureF,DewpointF,PressureIn,WindDirection,WindDirectionDegrees,WindSpeedMPH,WindSpeedGustMPH,Humidity,HourlyPrecipIn,Conditions,Clouds,dailyrainin,SolarRadiationWatts/m^2,SoftwareType,DateUTC
2013-01-22 00:02:00,35.0,15.0,-100.00,NW,317,6.0,9.0,44,0.00,,,0.00,0.000000,,2013-01-22 05:02:00,
2013-01-22 00:33:00,35.0,15.0,-100.00,NW,317,6.0,9.0,44,0.00,,,0.00,0.000000,,2013-01-22 05:33:00,
2013-01-22 00:43:00,35.0,15.0,-100.00,NW,317,6.0,9.0,44,0.00,,,0.00,0.000000,,2013-01-22 05:43:00,
2013-01-22 00:53:00,35.0,15.0,-100.00,NW,317,6.0,9.0,44,0.00,,,0.00,0.000000,,2013-01-22 05:53:00,
2013-01-22 01:02:00,34.0,12.0,-100.00,NW,319,7.0,10.0,40,0.00,,,0.00,0.000000,,2013-01-22 06:02:00,
2013-01-22 01:33:00,34.0,12.0,-100.00,NW,319,7.0,10.0,40,0.00,,,0.00,0.000000,,2013-01-22 06:33:00,
2013-01-22 01:43:00,34.0,12.0,-100.00,NW,319,7.0,10.0,40,0.00,,,0.00,0.000000,,2013-01-22 06:43:00,
2013-01-22 01:53:00,34.0,12.0,-100.00,NW,319,7.0,10.0,40,0.00,,,0.00,0.000000,,2013-01-22 06:53:00,
2013-01-22 02:02:00,33.0,12.0,-100.00,NW,317,7.0,10.0,42,0.00,,,0.00,0.000000,,2013-01-22 07:02:00,
2013-01-22 02:22:00,33.0,12.0,-100.00,NW,317,7.0,10.0,42,0.00,,,0.00,0.000000,,2013-01-22 07:22:00,
2013-01-22 02:33:00,33.0,12.0,-100.00,NW,317,7.0,10.0,42,0.00,,,0.00,0.000000,,2013-01-22 07:33:00,
2013-01-22 02:43:00,33.0,12.0,-100.00,NW,317,7.0,10.0,42,0.00,,,0.00,0.000000,,2013-01-22 07:43:00,
2013-01-22 02:53:00,33.0,12.0,-100.00,NW,317,7.0,10.0,42,0.00,,,0.00,0.000000,,2013-01-22 07:53:00,
2013-01-22 03:02:00,32.0,12.0,-100.00,NW,319,7.0,11.0,43,0.00,,,0.00,0.000000,,2013-01-22 08:02:00,
2013-01-22 03:22:00,32.0,12.0,-100.00,NW,319,7.0,11.0,43,0.00,,,0.00,0.000000,,2013-01-22 08:22:00,
2013-01-22 03:33:00,32.0,12.0,-100.00,NW,319,7.0,11.0,43,0.00,,,0.00,0.000000,,2013-01-22 08:33:00,
2013-01-22 03:43:00,32.0,12.0,-100.00,NW,319,7.0,11.0,43,0.00,,,0.00,0.000000,,2013-01-22 08:43:00,
2013-01-22 03:53:00,32.0,12.0,-100.00,NW,319,7.0,11.0,43,0.00,,,0.00,0.000000,,2013-01-22 08:53:00,
2013-01-22 04:02:00,30.0,12.0,-100.00,NW,317,5.0,11.0,46,0.00,,,0.00,0.000000,,2013-01-22 09:02:00,
2013-01-22 04:33:00,30.0,12.0,-100.00,NW,317,5.0,11.0,46,0.00,,,0.00,0.000000,,2013-01-22 09:33:00,
2013-01-22 04:43:00,30.0,12.0,-100.00,NW,317,5.0,11.0,46,0.00,,,0.00,0.000000,,2013-01-22 09:43:00,
2013-01-22 04:53:00,30.0,12.0,-100.00,NW,317,5.0,11.0,46,0.00,,,0.00,0.000000,,2013-01-22 09:53:00,
2013-01-22 05:02:00,29.0,12.0,-100.00,NW,314,4.0,9.0,48,0.00,,,0.00,0.000000,,2013-01-22 10:02:00,
2013-01-22 05:22:00,29.0,12.0,-100.00,NW,314,4.0,9.0,48,0.00,,,0.00,0.000000,,2013-01-22 10:22:00,
2013-01-22 05:33:00,29.0,12.0,-100.00,NW,314,4.0,9.0,48,0.00,,,0.00,0.000000,,2013-01-22 10:33:00,
2013-01-22 05:43:00,29.0,12.0,-100.00,NW,314,4.0,9.0,48,0.00,,,0.00,0.000000,,2013-01-22 10:43:00,
2013-01-22 05:53:00,29.0,12.0,-100.00,NW,314,4.0,9.0,48,0.00,,,0.00,0.000000,,2013-01-22 10:53:00,
2013-01-22 06:02:00,28.0,10.0,-100.00,NW,312,4.0,7.0,47,0.00,,,0.00,0.000000,,2013-01-22 11:02:00,
2013-01-22 06:33:00,28.0,10.0,-100.00,NW,312,4.0,7.0,47,0.00,,,0.00,0.000000,,2013-01-22 11:33:00,
2013-01-22 06:43:00,28.0,10.0,-100.00,NW,312,4.0,7.0,47,0.00,,,0.00,0.000000,,2013-01-22 11:43:00,
2013-01-22 06:53:00,28.0,10.0,-100.00,NW,312,4.0,7.0,47,0.00,,,0.00,0.000000,,2013-01-22 11:53:00,
2013-01-22 07:02:00,27.0,9.0,-100.00,NW,314,4.0,8.0,45,0.00,,,0.00,0.000000,,2013-01-22 12:02:00,
2013-01-22 07:33:00,27.0,9.0,-100.00,NW,314,4.0,8.0,45,0.00,,,0.00,0.000000,,2013-01-22 12:33:00,
2013-01-22 07:43:00,27.0,9.0,-100.00,NW,314,4.0,8.0,45,0.00,,,0.00,0.000000,,2013-01-22 12:43:00,
2013-01-22 07:53:00,27.0,9.0,-100.00,NW,314,4.0,8.0,45,0.00,,,0.00,0.000000,,2013-01-22 12:53:00,
2013-01-22 08:02:00,26.0,11.0,-100.00,NNW,345,2.0,8.0,52,0.00,,,0.00,2.000000,,2013-01-22 13:02:00,
2013-01-22 08:34:00,26.0,11.0,-100.00,NNW,345,2.0,8.0,52,0.00,,,0.00,2.000000,,2013-01-22 13:34:00,
2013-01-22 08:43:00,26.0,11.0,-100.00,NNW,345,2.0,8.0,52,0.00,,,0.00,2.000000,,2013-01-22 13:43:00,
2013-01-22 08:54:00,26.0,11.0,-100.00,NNW,345,2.0,8.0,52,0.00,,,0.00,2.000000,,2013-01-22 13:54:00,
2013-01-22 09:02:00,29.0,10.0,-100.00,NW,325,2.0,5.0,45,0.00,,,0.00,30.000000,,2013-01-22 14:02:00,
2013-01-22 09:34:00,29.0,10.0,-100.00,NW,325,2.0,5.0,45,0.00,,,0.00,30.000000,,2013-01-22 14:34:00,
2013-01-22 09:44:00,29.0,10.0,-100.00,NW,325,2.0,5.0,45,0.00,,,0.00,30.000000,,2013-01-22 14:44:00,
2013-01-22 09:54:00,29.0,10.0,-100.00,NW,325,2.0,5.0,45,0.00,,,0.00,30.000000,,2013-01-22 14:54:00,
2013-01-22 10:02:00,31.0,7.0,-100.00,NW,314,4.0,7.0,36,0.00,,,0.00,38.000000,,2013-01-22 15:02:00,
2013-01-22 10:34:00,31.0,7.0,-100.00,NW,314,4.0,7.0,36,0.00,,,0.00,38.000000,,2013-01-22 15:34:00,
2013-01-22 10:44:00,31.0,7.0,-100.00,NW,314,4.0,7.0,36,0.00,,,0.00,38.000000,,2013-01-22 15:44:00,
2013-01-22 10:54:00,31.0,7.0,-100.00,NW,314,4.0,7.0,36,0.00,,,0.00,38.000000,,2013-01-22 15:54:00,
2013-01-22 11:02:00,35.0,7.0,-100.00,NW,325,6.0,11.0,31,0.00,,,0.00,152.000000,,2013-01-22 16:02:00,
2013-01-22 11:33:00,35.0,7.0,-100.00,NW,325,6.0,11.0,31,0.00,,,0.00,152.000000,,2013-01-22 16:33:00,
2013-01-22 11:43:00,35.0,7.0,-100.00,NW,325,6.0,11.0,31,0.00,,,0.00,152.000000,,2013-01-22 16:43:00,
2013-01-22 11:54:00,35.0,7.0,-100.00,NW,325,6.0,11.0,31,0.00,,,0.00,152.000000,,2013-01-22 16:54:00,
2013-01-22 12:02:00,38.0,6.0,-100.00,NW,319,7.0,14.0,26,0.00,,,0.00,340.000000,,2013-01-22 17:02:00,
2013-01-22 12:35:00,38.0,6.0,-100.00,NW,319,7.0,14.0,26,0.00,,,0.00,340.000000,,2013-01-22 17:35:00,
2013-01-22 12:44:00,38.0,6.0,-100.00,NW,319,7.0,14.0,26,0.00,,,0.00,340.000000,,2013-01-22 17:44:00,
2013-01-22 12:54:00,38.0,6.0,-100.00,NW,319,7.0,14.0,26,0.00,,,0.00,340.000000,,2013-01-22 17:54:00,
2013-01-22 13:02:00,41.0,7.0,-100.00,NW,324,8.0,14.0,24,0.00,,,0.00,650.000000,,2013-01-22 18:02:00,
2013-01-22 13:34:00,41.0,7.0,-100.00,NW,324,8.0,14.0,24,0.00,,,0.00,650.000000,,2013-01-22 18:34:00,
2013-01-22 13:44:00,41.0,7.0,-100.00,NW,324,8.0,14.0,24,0.00,,,0.00,650.000000,,2013-01-22 18:44:00,
2013-01-22 13:54:00,41.0,7.0,-100.00,NW,324,8.0,14.0,24,0.00,,,0.00,650.000000,,2013-01-22 18:54:00,
2013-01-22 14:02:00,43.0,10.0,-100.00,NNW,328,9.0,15.0,26,0.00,,,0.00,640.000000,,2013-01-22 19:02:00,
2013-01-22 14:34:00,43.0,10.0,-100.00,NNW,328,9.0,15.0,26,0.00,,,0.00,640.000000,,2013-01-22 19:34:00,
2013-01-22 14:44:00,43.0,10.0,-100.00,NNW,328,9.0,15.0,26,0.00,,,0.00,640.000000,,2013-01-22 19:44:00,
2013-01-22 14:54:00,43.0,10.0,-100.00,NNW,328,9.0,15.0,26,0.00,,,0.00,640.000000,,2013-01-22 19:54:00,
2013-01-22 15:02:00,44.0,10.0,-100.00,WNW,290,4.0,16.0,25,0.00,,,0.00,561.000000,,2013-01-22 20:02:00,
2013-01-22 15:34:00,44.0,10.0,-100.00,WNW,290,4.0,16.0,25,0.00,,,0.00,561.000000,,2013-01-22 20:34:00,
2013-01-22 15:43:00,44.0,10.0,-100.00,WNW,290,4.0,16.0,25,0.00,,,0.00,561.000000,,2013-01-22 20:43:00,
2013-01-22 15:54:00,44.0,10.0,-100.00,WNW,290,4.0,16.0,25,0.00,,,0.00,561.000000,,2013-01-22 20:54:00,
2013-01-22 16:02:00,42.0,10.0,-100.00,West,266,4.0,11.0,26,0.00,,,0.00,424.000000,,2013-01-22 21:02:00,
2013-01-22 16:34:00,42.0,10.0,-100.00,West,266,4.0,11.0,26,0.00,,,0.00,424.000000,,2013-01-22 21:34:00,
2013-01-22 16:43:00,42.0,10.0,-100.00,West,266,4.0,11.0,26,0.00,,,0.00,424.000000,,2013-01-22 21:43:00,
2013-01-22 16:53:00,42.0,10.0,-100.00,West,266,4.0,11.0,26,0.00,,,0.00,424.000000,,2013-01-22 21:53:00,
2013-01-22 17:02:00,37.0,8.0,-100.00,WNW,284,5.0,11.0,30,0.00,,,0.00,143.000000,,2013-01-22 22:02:00,
2013-01-22 17:33:00,37.0,8.0,-100.00,WNW,284,5.0,11.0,30,0.00,,,0.00,143.000000,,2013-01-22 22:33:00,
2013-01-22 17:43:00,37.0,8.0,-100.00,WNW,284,5.0,11.0,30,0.00,,,0.00,143.000000,,2013-01-22 22:43:00,
2013-01-22 17:53:00,37.0,8.0,-100.00,WNW,284,5.0,11.0,30,0.00,,,0.00,143.000000,,2013-01-22 22:53:00,
2013-01-22 18:02:00,34.0,9.0,-100.00,NW,304,4.0,12.0,35,0.00,,,0.00,12.000000,,2013-01-22 23:02:00,
2013-01-22 18:24:00,34.0,9.0,-100.00,NW,304,4.0,12.0,35,0.00,,,0.00,12.000000,,2013-01-22 23:24:00,
2013-01-22 18:34:00,34.0,9.0,-100.00,NW,304,4.0,12.0,35,0.00,,,0.00,12.000000,,2013-01-22 23:34:00,
2013-01-22 18:43:00,34.0,9.0,-100.00,NW,304,4.0,12.0,35,0.00,,,0.00,12.000000,,2013-01-22 23:43:00,
2013-01-22 18:53:00,34.0,9.0,-100.00,NW,304,4.0,12.0,35,0.00,,,0.00,12.000000,,2013-01-22 23:53:00,
2013-01-22 19:02:00,32.0,8.0,-100.00,NW,310,4.0,14.0,36,0.00,,,0.00,0.000000,,2013-01-23 00:02:00,
2013-01-22 19:23:00,32.0,8.0,-100.00,NW,310,4.0,14.0,36,0.00,,,0.00,0.000000,,2013-01-23 00:23:00,
2013-01-22 19:33:00,32.0,8.0,-100.00,NW,310,4.0,14.0,36,0.00,,,0.00,0.000000,,2013-01-23 00:33:00,
2013-01-22 19:43:00,32.0,8.0,-100.00,NW,310,4.0,14.0,36,0.00,,,0.00,0.000000,,2013-01-23 00:43:00,
2013-01-22 19:53:00,32.0,8.0,-100.00,NW,310,4.0,14.0,36,0.00,,,0.00,0.000000,,2013-01-23 00:53:00,
2013-01-22 20:02:00,31.0,8.0,-100.00,NW,321,3.0,6.0,38,0.00,,,0.00,0.000000,,2013-01-23 01:02:00,
2013-01-22 20:33:00,31.0,8.0,-100.00,NW,321,3.0,6.0,38,0.00,,,0.00,0.000000,,2013-01-23 01:33:00,
2013-01-22 20:43:00,31.0,8.0,-100.00,NW,321,3.0,6.0,38,0.00,,,0.00,0.000000,,2013-01-23 01:43:00,
2013-01-22 20:53:00,31.0,8.0,-100.00,NW,321,3.0,6.0,38,0.00,,,0.00,0.000000,,2013-01-23 01:53:00,
2013-01-22 21:02:00,30.0,7.0,-100.00,WNW,290,1.0,3.0,37,0.00,,,0.00,0.000000,,2013-01-23 02:02:00,
2013-01-22 21:23:00,30.0,7.0,-100.00,WNW,290,1.0,3.0,37,0.00,,,0.00,0.000000,,2013-01-23 02:23:00,
2013-01-22 21:33:00,30.0,7.0,-100.00,WNW,290,1.0,3.0,37,0.00,,,0.00,0.000000,,2013-01-23 02:33:00,
2013-01-22 21:43:00,30.0,7.0,-100.00,WNW,290,1.0,3.0,37,0.00,,,0.00,0.000000,,2013-01-23 02:43:00,
2013-01-22 21:53:00,30.0,7.0,-100.00,WNW,290,1.0,3.0,37,0.00,,,0.00,0.000000,,2013-01-23 02:53:00,
2013-01-22 22:02:00,31.0,11.0,-100.00,WSW,246,2.0,3.0,43,0.00,,,0.00,0.000000,,2013-01-23 03:02:00,
2013-01-22 22:33:00,31.0,11.0,-100.00,WSW,246,2.0,3.0,43,0.00,,,0.00,0.000000,,2013-01-23 03:33:00,
2013-01-22 22:43:00,31.0,11.0,-100.00,WSW,246,2.0,3.0,43,0.00,,,0.00,0.000000,,2013-01-23 03:43:00,
2013-01-22 22:53:00,31.0,11.0,-100.00,WSW,246,2.0,3.0,43,0.00,,,0.00,0.000000,,2013-01-23 03:53:00,
2013-01-22 23:02:00,31.0,12.0,-100.00,SSE,162,1.0,4.0,45,0.00,,,0.00,0.000000,,2013-01-23 04:02:00,
2013-01-22 23:23:00,31.0,12.0,-100.00,SSE,162,1.0,4.0,45,0.00,,,0.00,0.000000,,2013-01-23 04:23:00,
2013-01-22 23:33:00,31.0,12.0,-100.00,SSE,162,1.0,4.0,45,0.00,,,0.00,0.000000,,2013-01-23 04:33:00,
2013-01-22 23:43:00,31.0,12.0,-100.00,SSE,162,1.0,4.0,45,0.00,,,0.00,0.000000,,2013-01-23 04:43:00,
2013-01-22 23:53:00,31.0,12.0,-100.00,SSE,162,1.0,4.0,45,0.00,,,0.00,0.000000,,2013-01-23 04:53:00,